Precipitable_Water
2.22 2.26 2.36 2.38 2.29 2.33 2.38 2.36 2.35 2.31 2.32 2.26 2.24 2.20 2.16 2.11 2.08 2.02 2.00 1.97 1.94 1.94 1.93 1.87 1.78 1.69 1.62 1.58 1.56 1.55 1.55 1.54 1.52 1.53 1.53 1.53 1.51 1.51 1.51 1.48 1.47 1.52 1.62 1.63 1.58 1.60 1.63 1.63 1.63 1.62 1.63 1.63 1.67 1.73 1.80 1.80 1.85 1.80 1.85 1.84 1.83 1.77 1.65 1.66 1.65 1.62 1.55 1.48 1.42 1.36 1.40 1.40 1.45 1.41 1.33 1.28 1.25 1.30 1.32 1.42 1.56 1.60 1.59 1.47 1.54
2.18 2.30 2.32 2.40 2.34 2.31 2.28 2.33 2.31 2.31 2.28 2.22 2.21 2.19 2.13 2.10 2.06 2.01 1.98 1.94 1.93 1.92 1.87 1.80 1.72 1.65 1.58 1.54 1.53 1.53 1.54 1.54 1.53 1.53 1.54 1.50 1.48 1.50 1.49 1.49 1.51 1.58 1.55 1.59 1.65 1.65 1.63 1.64 1.66 1.71 1.71 1.66 1.67 1.70 1.75 1.81 1.81 1.80 1.83 1.84 1.74 1.80 1.75 1.70 1.66 1.64 1.60 1.50 1.44 1.40 1.40 1.39 1.36 1.36 1.35 1.33 1.30 1.28 1.28 1.38 1.57 1.72 1.68 1.61 1.63
2.27 2.27 2.29 2.36 2.26 2.23 2.27 2.31 2.31 2.23 2.24 2.20 2.15 2.13 2.13 2.07 2.05 2.02 1.97 1.95 1.94 1.94 1.87 1.76 1.67 1.61 1.57 1.51 1.49 1.52 1.53 1.54 1.55 1.57 1.54 1.48 1.48 1.48 1.50 1.49 1.51 1.61 1.59 1.67 1.66 1.62 1.63 1.67 1.72 1.73 1.71 1.68 1.67 1.70 1.75 1.83 1.81 1.85 1.92 1.95 1.92 1.87 1.77 1.75 1.69 1.65 1.62 1.53 1.48 1.48 1.53 1.50 1.32 1.24 1.34 1.35 1.32 1.35 1.39 1.45 1.61 1.69 1.61 1.71 1.72
2.19 2.26 2.31 2.31 2.31 2.30 2.32 2.27 2.27 2.25 2.21 2.17 2.12 2.07 2.05 2.02 1.99 1.98 1.95 1.92 1.90 1.91 1.85 1.74 1.62 1.57 1.56 1.53 1.49 1.47 1.50 1.52 1.55 1.57 1.50 1.47 1.47 1.50 1.51 1.49 1.54 1.63 1.69 1.71 1.64 1.62 1.67 1.72 1.72 1.77 1.79 1.74 1.68 1.65 1.66 1.75 1.75 1.83 1.87 1.89 1.93 1.93 1.93 1.81 1.74 1.64 1.58 1.53 1.46 1.48 1.68 1.58 1.51 1.32 1.30 1.31 1.38 1.42 1.46 1.54 1.63 1.63 1.63 1.70 1.76
2.23 2.29 2.28 2.31 2.30 2.32 2.27 2.24 2.19 2.15 2.10 2.10 2.08 1.99 1.95 1.94 1.92 1.90 1.89 1.90 1.87 1.86 1.86 1.75 1.63 1.57 1.57 1.57 1.53 1.48 1.50 1.55 1.59 1.56 1.50 1.47 1.47 1.49 1.48 1.51 1.58 1.68 1.67 1.66 1.70 1.62 1.66 1.65 1.66 1.74 1.80 1.80 1.73 1.74 1.75 1.78 1.77 1.81 1.81 1.88 1.91 1.90 2.00 1.93 1.75 1.72 1.65 1.54 1.43 1.44 1.37 1.56 1.55 1.48 1.48 1.35 1.40 1.54 1.54 1.53 1.59 1.60 1.67 1.71 1.78
2.18 2.24 2.31 2.36 2.34 2.22 2.19 2.19 2.23 2.13 2.03 1.99 2.01 1.95 1.92 1.91 1.90 1.89 1.88 1.87 1.86 1.83 1.78 1.73 1.68 1.63 1.60 1.57 1.55 1.54 1.53 1.58 1.56 1.53 1.52 1.47 1.47 1.47 1.48 1.50 1.56 1.61 1.67 1.72 1.66 1.69 1.64 1.59 1.60 1.66 1.74 1.77 1.78 1.77 1.84 1.84 1.78 1.78 1.78 1.83 1.89 1.88 1.88 1.90 1.86 1.77 1.67 1.63 1.58 1.43 1.30 1.52 1.69 1.57 1.37 1.38 1.37 1.51 1.61 1.60 1.67 1.70 1.66 1.71 1.77
2.27 2.31 2.31 2.28 2.30 2.24 2.12 2.13 2.18 2.16 2.12 2.02 1.99 1.92 1.90 1.89 1.89 1.88 1.85 1.80 1.76 1.72 1.68 1.65 1.69 1.69 1.59 1.58 1.57 1.55 1.54 1.55 1.54 1.53 1.50 1.50 1.49 1.51 1.54 1.57 1.57 1.65 1.71 1.68 1.65 1.65 1.65 1.57 1.55 1.59 1.65 1.76 1.82 1.77 1.81 1.85 1.92 1.72 1.76 1.86 1.89 1.89 1.89 1.83 1.85 1.77 1.68 1.79 1.66 1.42 1.37 1.55 1.56 1.49 1.41 1.47 1.38 1.46 1.53 1.61 1.60 1.67 1.76 1.75 1.75
2.19 2.27 2.26 2.26 2.27 2.20 2.09 2.02 2.03 2.03 2.02 1.99 1.96 1.91 1.87 1.85 1.87 1.86 1.83 1.79 1.73 1.71 1.68 1.66 1.66 1.67 1.63 1.58 1.55 1.55 1.53 1.55 1.56 1.53 1.51 1.51 1.51 1.53 1.58 1.62 1.60 1.70 1.67 1.62 1.54 1.59 1.63 1.65 1.62 1.66 1.69 1.70 1.75 1.81 1.79 1.71 1.82 1.91 1.84 1.88 1.90 1.83 1.88 1.86 1.83 1.83 1.67 1.76 1.61 1.38 1.33 1.41 1.57 1.48 1.38 1.43 1.46 1.47 1.51 1.56 1.55 1.61 1.70 1.73 1.73
2.07 2.16 2.15 2.16 2.22 2.16 2.08 1.97 1.94 1.96 2.00 1.97 1.98 1.96 1.94 1.89 1.86 1.86 1.80 1.76 1.75 1.72 1.68 1.69 1.69 1.69 1.66 1.62 1.59 1.56 1.55 1.57 1.54 1.53 1.50 1.50 1.53 1.56 1.61 1.62 1.70 1.69 1.64 1.56 1.59 1.58 1.62 1.65 1.63 1.66 1.76 1.77 1.79 1.82 1.80 1.80 1.83 1.87 1.78 1.90 1.94 1.84 1.84 1.84 1.84 1.86 1.76 1.76 1.66 1.39 1.30 1.39 1.57 1.41 1.39 1.45 1.48 1.56 1.56 1.55 1.57 1.59 1.64 1.67 1.70
2.16 2.13 2.18 2.13 2.05 2.03 1.98 1.94 1.94 1.89 1.92 1.94 1.94 1.93 1.90 1.85 1.80 1.71 1.72 1.72 1.69 1.69 1.70 1.72 1.75 1.72 1.69 1.63 1.61 1.58 1.55 1.52 1.53 1.54 1.53 1.52 1.57 1.62 1.70 1.77 1.72 1.68 1.62 1.61 1.54 1.57 1.62 1.60 1.58 1.59 1.74 1.81 1.83 1.81 1.89 1.86 1.92 1.93 1.92 1.89 1.93 1.91 1.86 1.82 1.93 1.95 1.81 1.71 1.57 1.48 1.34 1.32 1.52 1.69 1.43 1.50 1.51 1.61 1.64 1.71 1.69 1.64 1.66 1.65 1.67
2.07 2.08 2.09 2.06 2.02 1.93 1.91 1.92 1.94 1.91 1.92 1.90 1.90 1.88 1.84 1.79 1.76 1.71 1.62 1.68 1.70 1.69 1.69 1.71 1.71 1.71 1.68 1.66 1.64 1.61 1.59 1.59 1.58 1.59 1.56 1.56 1.60 1.67 1.75 1.77 1.71 1.63 1.61 1.58 1.57 1.60 1.61 1.63 1.66 1.64 1.68 1.79 1.84 1.83 1.88 1.92 1.90 1.91 1.96 1.90 1.91 1.91 1.89 1.85 1.89 1.87 1.82 1.86 1.66 1.79 1.39 1.22 1.50 1.54 1.36 1.45 1.50 1.59 1.60 1.61 1.57 1.55 1.58 1.62 1.60
1.99 2.03 2.06 2.07 1.95 1.92 1.90 1.92 1.93 1.91 1.90 1.89 1.89 1.85 1.82 1.78 1.73 1.70 1.65 1.61 1.62 1.62 1.66 1.69 1.70 1.68 1.69 1.66 1.63 1.62 1.63 1.64 1.58 1.55 1.53 1.59 1.58 1.80 1.77 1.80 1.68 1.65 1.61 1.59 1.64 1.71 1.77 1.77 1.77 1.74 1.72 1.76 1.80 1.82 1.82 1.82 1.85 1.90 1.93 1.92 1.89 1.85 1.87 1.87 1.90 1.94 1.84 1.74 1.70 1.74 1.73 1.69 1.52 1.34 1.33 1.49 1.53 1.56 1.56 1.53 1.53 1.54 1.55 1.54 1.55
1.95 1.98 2.01 1.98 1.96 1.87 1.86 1.90 1.87 1.87 1.89 1.86 1.86 1.84 1.81 1.78 1.76 1.74 1.76 1.67 1.62 1.59 1.62 1.63 1.63 1.66 1.68 1.67 1.64 1.61 1.59 1.57 1.55 1.51 1.55 1.59 1.72 1.79 1.79 1.63 1.68 1.62 1.61 1.72 1.80 1.85 1.89 1.93 1.92 1.84 1.83 1.80 1.84 1.82 1.81 1.76 1.77 1.83 1.87 1.89 1.86 1.88 1.82 1.86 1.88 1.92 1.85 1.88 1.87 1.77 1.72 1.76 1.74 1.34 1.37 1.45 1.53 1.52 1.56 1.51 1.55 1.51 1.50 1.52 1.54
1.89 1.92 1.93 1.93 1.92 1.86 1.84 1.88 1.86 1.82 1.84 1.87 1.86 1.83 1.80 1.79 1.77 1.74 1.68 1.63 1.61 1.62 1.63 1.61 1.59 1.61 1.63 1.64 1.62 1.58 1.52 1.50 1.50 1.53 1.55 1.68 1.80 1.91 1.69 1.68 1.77 1.68 1.73 1.91 1.94 1.97 1.99 1.93 1.90 1.92 1.88 1.87 1.84 1.84 1.87 1.82 1.79 1.79 1.85 1.88 1.88 1.82 1.84 1.83 1.80 1.89 2.03 1.99 1.84 1.83 1.78 1.84 1.86 1.41 1.40 1.48 1.51 1.53 1.56 1.53 1.53 1.52 1.50 1.52 1.53
1.85 1.85 1.87 1.87 1.81 1.81 1.80 1.84 1.79 1.81 1.80 1.82 1.81 1.80 1.78 1.78 1.77 1.72 1.66 1.63 1.63 1.66 1.66 1.65 1.64 1.68 1.67 1.65 1.63 1.54 1.51 1.48 1.54 1.60 1.60 1.69 1.76 1.89 1.77 1.76 1.82 1.76 1.88 1.95 1.95 2.00 1.97 1.94 1.91 1.88 1.87 1.80 1.73 1.77 1.84 1.82 1.76 1.78 1.83 1.89 1.86 1.83 1.90 1.88 1.89 1.84 1.94 1.97 1.96 1.99 1.89 1.88 1.73 1.58 1.50 1.45 1.50 1.52 1.54 1.55 1.56 1.48 1.49 1.51 1.53
1.88 1.86 1.84 1.81 1.90 1.76 1.77 1.74 1.78 1.79 1.80 1.77 1.75 1.73 1.74 1.75 1.77 1.72 1.69 1.68 1.64 1.64 1.68 1.69 1.71 1.73 1.71 1.67 1.62 1.60 1.54 1.56 1.65 1.67 1.69 1.73 1.79 1.83 1.79 1.80 1.83 1.84 1.92 1.93 1.96 2.04 2.00 1.93 1.85 1.89 1.82 1.74 1.74 1.79 1.79 1.85 1.84 1.75 1.76 1.77 1.76 1.82 1.86 1.85 1.85 1.75 1.83 1.98 1.97 1.99 2.08 1.90 1.86 1.75 1.59 1.52 1.45 1.45 1.50 1.53 1.56 1.49 1.50 1.52 1.52
1.87 1.88 1.79 1.75 1.78 1.85 1.84 1.76 1.75 1.74 1.74 1.74 1.72 1.70 1.71 1.73 1.74 1.72 1.71 1.75 1.77 1.72 1.67 1.71 1.71 1.71 1.62 1.66 1.62 1.65 1.62 1.66 1.71 1.74 1.79 1.76 1.78 1.72 1.73 1.75 1.82 1.82 1.88 1.91 1.93 2.01 1.97 1.78 1.75 1.87 1.83 1.76 1.78 1.78 1.75 1.89 1.87 1.89 1.81 1.83 1.76 1.72 1.82 1.85 1.91 1.87 1.90 1.95 1.96 1.96 2.10 2.02 2.03 1.86 1.66 1.55 1.46 1.47 1.49 1.52 1.48 1.44 1.50 1.50 1.50
1.81 1.81 1.75 1.70 1.67 1.68 1.69 1.86 1.73 1.67 1.59 1.61 1.64 1.69 1.70 1.76 1.76 1.78 1.79 1.80 1.78 1.74 1.71 1.77 1.71 1.72 1.68 1.70 1.78 1.75 1.78 1.75 1.76 1.79 1.75 1.73 1.62 1.64 1.65 1.73 1.84 1.87 1.92 1.94 1.91 2.00 1.96 1.91 1.75 1.88 1.88 1.77 1.76 1.73 1.78 1.84 1.93 1.95 1.91 1.89 1.75 1.80 1.84 1.86 1.82 1.94 1.79 1.82 1.94 1.94 1.99 1.98 2.02 1.99 1.75 1.54 1.47 1.46 1.48 1.44 1.43 1.43 1.45 1.47 1.51
1.74 1.79 1.77 1.67 1.63 1.64 1.57 1.66 1.70 1.61 1.61 1.74 1.82 1.69 1.70 1.73 1.75 1.74 1.78 1.76 1.74 1.76 1.77 1.77 1.72 1.73 1.76 1.77 1.79 1.77 1.74 1.75 1.79 1.77 1.71 1.62 1.65 1.67 1.77 1.82 1.87 1.94 1.97 2.00 2.03 2.00 1.99 1.93 1.76 1.75 1.89 1.78 1.74 1.78 1.84 1.85 1.89 1.90 1.94 1.89 1.90 1.85 1.92 1.83 1.84 1.88 1.79 1.80 1.85 1.93 1.95 1.97 1.96 2.06 1.80 1.62 1.49 1.41 1.45 1.44 1.40 1.39 1.44 1.48 1.45
1.66 1.66 1.68 1.70 1.59 1.60 1.56 1.57 1.60 1.65 1.68 1.78 1.84 1.69 1.66 1.67 1.70 1.70 1.74 1.74 1.76 1.78 1.79 1.75 1.75 1.75 1.78 1.80 1.75 1.75 1.76 1.81 1.77 1.78 1.73 1.68 1.73 1.76 1.80 1.86 1.88 1.96 2.00 1.96 2.00 1.97 1.89 1.86 1.83 1.73 1.85 1.86 1.79 1.73 1.70 1.73 1.77 1.75 1.74 1.73 1.68 1.90 1.86 1.88 1.79 1.84 1.84 1.88 1.80 1.73 1.89 1.95 1.93 1.96 1.86 1.74 1.58 1.45 1.38 1.41 1.40 1.37 1.39 1.44 1.44
1.62 1.63 1.62 1.66 1.69 1.73 1.61 1.69 1.58 1.70 1.75 1.75 1.72 1.68 1.69 1.65 1.61 1.69 1.71 1.71 1.75 1.74 1.73 1.71 1.71 1.73 1.76 1.79 1.79 1.77 1.85 1.82 1.83 1.80 1.76 1.72 1.77 1.74 1.79 1.84 1.87 1.91 1.97 1.93 1.89 1.91 1.84 1.81 1.87 1.82 1.78 1.76 1.64 1.62 1.65 1.66 1.66 1.67 1.66 1.61 1.72 1.80 1.75 1.78 1.77 1.85 1.77 1.83 1.86 1.80 1.88 1.92 1.90 1.93 1.93 1.83 1.75 1.57 1.44 1.37 1.41 1.36 1.36 1.39 1.42
1.50 1.54 1.58 1.57 1.63 1.58 1.56 1.56 1.66 1.71 1.58 1.72 1.69 1.69 1.72 1.69 1.66 1.73 1.67 1.66 1.67 1.66 1.69 1.71 1.70 1.77 1.73 1.76 1.79 1.78 1.81 1.79 1.77 1.73 1.78 1.80 1.79 1.79 1.76 1.84 1.83 1.82 1.84 1.85 1.80 1.83 1.81 1.71 1.68 1.67 1.67 1.63 1.64 1.73 1.77 1.76 1.74 1.69 1.69 1.69 1.76 1.76 1.77 1.76 1.76 1.77 1.76 1.90 1.86 1.92 1.87 1.88 1.91 1.95 1.92 1.86 1.84 1.72 1.54 1.44 1.39 1.39 1.36 1.36 1.39
1.45 1.52 1.55 1.56 1.62 1.78 1.62 1.50 1.60 1.68 1.66 1.80 1.72 1.75 1.75 1.72 1.69 1.62 1.67 1.68 1.71 1.67 1.73 1.73 1.75 1.80 1.84 1.79 1.79 1.81 1.79 1.88 1.86 1.87 1.81 1.73 1.66 1.68 1.76 1.81 1.80 1.76 1.76 1.74 1.71 1.70 1.60 1.56 1.50 1.50 1.51 1.58 1.68 1.67 1.70 1.74 1.80 1.81 1.79 1.80 1.79 1.80 1.77 1.80 1.79 1.78 1.75 1.81 1.84 1.85 1.86 1.89 1.94 1.94 1.96 1.85 1.82 1.86 1.75 1.56 1.46 1.41 1.38 1.35 1.34
1.44 1.48 1.51 1.54 1.53 1.62 1.72 1.73 1.80 1.78 1.83 1.79 1.66 1.75 1.71 1.71 1.71 1.74 1.74 1.70 1.72 1.70 1.76 1.75 1.79 1.83 1.86 1.84 1.83 1.83 1.85 1.85 1.81 1.71 1.68 1.76 1.75 1.75 1.73 1.71 1.73 1.71 1.67 1.80 1.74 1.67 1.58 1.57 1.52 1.53 1.62 1.53 1.54 1.56 1.56 1.64 1.71 1.78 1.84 1.81 1.81 1.83 1.82 1.82 1.76 1.72 1.74 1.77 1.77 1.69 1.74 1.88 1.91 1.92 1.89 1.91 1.84 1.81 1.81 1.72 1.57 1.49 1.42 1.37 1.36
1.48 1.55 1.53 1.49 1.53 1.56 1.56 1.59 1.61 1.55 1.61 1.68 1.66 1.73 1.74 1.61 1.62 1.64 1.66 1.76 1.71 1.67 1.80 1.77 1.78 1.77 1.79 1.82 1.81 1.82 1.80 1.81 1.83 1.79 1.76 1.75 1.69 1.66 1.69 1.68 1.69 1.75 1.62 1.68 1.66 1.59 1.57 1.55 1.57 1.56 1.55 1.51 1.49 1.48 1.52 1.55 1.64 1.68 1.72 1.77 1.79 1.80 1.79 1.83 1.85 1.76 1.74 1.76 1.85 1.69 1.65 1.78 1.87 1.86 1.87 1.87 1.87 1.86 1.85 1.85 1.72 1.56 1.52 1.45 1.42
1.64 1.51 1.48 1.55 1.56 1.58 1.57 1.60 1.63 1.56 1.61 1.71 1.69 1.67 1.71 1.63 1.61 1.64 1.69 1.72 1.72 1.72 1.71 1.70 1.72 1.72 1.76 1.75 1.77 1.77 1.71 1.72 1.71 1.70 1.69 1.69 1.65 1.64 1.63 1.67 1.67 1.67 1.67 1.63 1.62 1.60 1.58 1.57 1.54 1.53 1.52 1.53 1.50 1.51 1.52 1.56 1.59 1.63 1.65 1.65 1.61 1.54 1.54 1.56 1.61 1.69 1.69 1.72 1.82 1.74 1.69 1.76 1.83 1.84 1.83 1.86 1.86 1.88 1.93 1.92 1.87 1.73 1.61 1.56 1.48
1.55 1.50 1.52 1.55 1.58 1.62 1.65 1.64 1.62 1.60 1.55 1.65 1.65 1.68 1.61 1.63 1.70 1.68 1.64 1.66 1.68 1.65 1.65 1.69 1.71 1.78 1.74 1.74 1.68 1.64 1.64 1.66 1.66 1.64 1.61 1.63 1.62 1.61 1.62 1.62 1.60 1.60 1.62 1.57 1.57 1.56 1.53 1.53 1.54 1.54 1.52 1.47 1.48 1.49 1.50 1.53 1.56 1.53 1.53 1.50 1.43 1.35 1.33 1.32 1.33 1.36 1.42 1.53 1.68 1.68 1.70 1.76 1.81 1.87 1.87 1.88 1.88 1.85 1.83 1.86 1.85 1.85 1.77 1.63 1.58
1.52 1.52 1.54 1.55 1.54 1.59 1.67 1.65 1.58 1.59 1.63 1.66 1.63 1.69 1.65 1.60 1.68 1.69 1.66 1.68 1.65 1.65 1.70 1.70 1.74 1.75 1.73 1.72 1.66 1.67 1.65 1.61 1.60 1.58 1.58 1.57 1.55 1.53 1.52 1.49 1.56 1.57 1.60 1.47 1.47 1.52 1.53 1.54 1.53 1.51 1.50 1.48 1.45 1.44 1.47 1.48 1.50 1.48 1.36 1.31 1.28 1.27 1.25 1.22 1.18 1.16 1.19 1.30 1.47 1.65 1.66 1.72 1.81 1.86 1.90 1.89 1.89 1.86 1.78 1.80 1.85 1.87 1.92 1.85 1.77
1.46 1.50 1.55 1.55 1.56 1.56 1.61 1.63 1.59 1.55 1.57 1.61 1.58 1.61 1.68 1.68 1.68 1.71 1.68 1.72 1.68 1.68 1.72 1.75 1.70 1.72 1.72 1.68 1.67 1.62 1.62 1.60 1.58 1.56 1.57 1.52 1.49 1.51 1.48 1.48 1.50 1.51 1.52 1.51 1.51 1.51 1.52 1.55 1.53 1.49 1.48 1.47 1.45 1.43 1.45 1.43 1.41 1.36 1.29 1.27 1.23 1.21 1.21 1.13 1.11 1.08 1.09 1.17 1.26 1.55 1.65 1.66 1.75 1.84 1.92 1.95 1.90 1.84 1.82 1.80 1.90 1.90 1.93 1.92 1.92
1.44 1.49 1.55 1.55 1.62 1.61 1.58 1.60 1.60 1.56 1.55 1.54 1.56 1.58 1.63 1.62 1.64 1.66 1.70 1.72 1.70 1.71 1.73 1.69 1.72 1.69 1.68 1.69 1.65 1.63 1.62 1.65 1.59 1.62 1.69 1.63 1.68 1.61 1.62 1.47 1.46 1.52 1.48 1.45 1.53 1.51 1.51 1.54 1.54 1.51 1.48 1.46 1.40 1.43 1.37 1.32 1.29 1.27 1.29 1.21 1.19 1.18 1.15 1.11 1.09 1.10 1.12 1.15 1.26 1.36 1.47 1.57 1.65 1.74 1.83 1.94 1.95 1.89 1.80 1.84 1.86 1.93 1.93 1.86 1.84
1.49 1.44 1.49 1.53 1.61 1.59 1.60 1.61 1.62 1.62 1.60 1.59 1.60 1.63 1.66 1.65 1.65 1.66 1.69 1.65 1.69 1.67 1.72 1.74 1.66 1.68 1.69 1.83 1.73 1.68 1.63 1.62 1.79 1.75 1.60 1.50 1.45 1.54 1.51 1.67 1.58 1.56 1.56 1.45 1.52 1.50 1.51 1.51 1.50 1.42 1.43 1.42 1.39 1.43 1.37 1.27 1.22 1.22 1.20 1.13 1.18 1.19 1.16 1.16 1.09 1.11 1.18 1.20 1.23 1.30 1.41 1.49 1.57 1.62 1.69 1.80 1.89 1.90 1.89 1.86 1.84 1.87 1.87 1.83 1.82
1.37 1.40 1.46 1.53 1.58 1.59 1.61 1.64 1.66 1.65 1.59 1.60 1.61 1.60 1.62 1.63 1.65 1.65 1.63 1.67 1.67 1.67 1.69 1.68 1.66 1.67 1.74 1.74 1.67 1.62 1.69 1.61 1.65 1.59 1.54 1.50 1.41 1.39 1.39 1.53 1.64 1.82 1.68 1.58 1.53 1.49 1.44 1.47 1.47 1.46 1.43 1.43 1.43 1.38 1.34 1.22 1.18 1.15 1.11 1.15 1.25 1.21 1.17 1.16 1.11 1.10 1.11 1.14 1.14 1.21 1.29 1.40 1.50 1.51 1.53 1.61 1.74 1.84 1.98 2.02 1.97 1.89 1.85 1.86 1.90
1.38 1.41 1.45 1.47 1.48 1.55 1.58 1.61 1.63 1.61 1.57 1.52 1.50 1.54 1.58 1.58 1.58 1.60 1.62 1.65 1.65 1.64 1.65 1.64 1.60 1.72 1.77 1.79 1.72 1.63 1.65 1.58 1.53 1.49 1.45 1.47 1.42 1.33 1.27 1.46 1.58 1.64 1.51 1.57 1.52 1.45 1.41 1.43 1.48 1.51 1.48 1.45 1.37 1.29 1.25 1.19 1.13 1.09 1.08 1.20 1.21 1.21 1.15 1.19 1.22 1.19 1.17 1.14 1.17 1.17 1.16 1.23 1.35 1.47 1.40 1.39 1.51 1.72 1.87 1.86 1.87 1.89 1.81 1.79 1.86
1.38 1.42 1.43 1.39 1.45 1.51 1.56 1.61 1.60 1.57 1.54 1.47 1.45 1.45 1.46 1.48 1.52 1.53 1.57 1.56 1.61 1.56 1.52 1.54 1.65 1.69 1.74 1.71 1.73 1.74 1.62 1.56 1.60 1.49 1.48 1.43 1.38 1.36 1.38 1.36 1.59 1.74 1.71 1.78 1.73 1.54 1.39 1.38 1.38 1.41 1.39 1.32 1.24 1.22 1.18 1.12 1.10 1.09 1.12 1.18 1.19 1.16 1.10 1.17 1.22 1.18 1.16 1.16 1.17 1.06 1.05 1.07 1.16 1.25 1.35 1.40 1.35 1.48 1.77 1.74 1.72 1.76 1.81 1.77 1.81
1.36 1.38 1.35 1.38 1.42 1.48 1.55 1.54 1.56 1.54 1.50 1.42 1.38 1.39 1.42 1.43 1.46 1.50 1.53 1.60 1.60 1.56 1.59 1.60 1.63 1.68 1.69 1.71 1.74 1.61 1.50 1.57 1.67 1.59 1.50 1.39 1.37 1.31 1.45 1.54 1.74 1.73 1.53 1.82 1.67 1.47 1.39 1.36 1.38 1.32 1.30 1.24 1.24 1.23 1.17 1.11 1.08 1.06 1.10 1.12 1.11 1.10 1.09 1.16 1.20 1.21 1.27 1.18 1.12 1.12 1.02 0.95 0.96 1.08 1.18 1.30 1.51 1.37 1.54 1.63 1.69 1.72 1.85 1.84 1.79
1.31 1.34 1.36 1.40 1.42 1.47 1.53 1.49 1.56 1.53 1.50 1.43 1.39 1.42 1.41 1.40 1.47 1.51 1.56 1.63 1.71 1.70 1.67 1.69 1.73 1.74 1.76 1.67 1.59 1.56 1.53 1.60 1.60 1.56 1.50 1.37 1.29 1.35 1.48 1.64 1.74 1.65 1.55 1.62 1.58 1.41 1.40 1.34 1.35 1.30 1.20 1.15 1.14 1.16 1.17 1.11 1.12 1.09 1.09 1.11 1.11 1.09 1.09 1.13 1.15 1.20 1.23 1.23 1.22 1.20 1.21 1.16 1.06 0.96 1.03 1.14 1.26 1.58 1.41 1.53 1.61 1.63 1.66 1.68 1.67
1.32 1.35 1.34 1.33 1.34 1.39 1.44 1.46 1.51 1.50 1.46 1.45 1.43 1.43 1.42 1.39 1.52 1.64 1.70 1.65 1.54 1.72 1.72 1.72 1.65 1.68 1.74 1.68 1.52 1.45 1.43 1.44 1.51 1.45 1.38 1.42 1.36 1.44 1.64 1.66 1.66 1.61 1.61 1.60 1.50 1.45 1.38 1.33 1.31 1.26 1.18 1.07 1.06 1.07 1.11 1.17 1.16 1.09 1.09 1.10 1.11 1.09 1.09 1.12 1.17 1.18 1.24 1.25 1.27 1.29 1.28 1.31 1.36 1.23 1.14 0.94 1.16 1.30 1.37 1.30 1.43 1.60 1.66 1.74 1.70
1.35 1.34 1.37 1.35 1.29 1.32 1.37 1.40 1.46 1.50 1.51 1.53 1.52 1.47 1.47 1.48 1.56 1.62 1.64 1.59 1.57 1.60 1.69 1.67 1.72 1.65 1.53 1.59 1.49 1.36 1.38 1.45 1.49 1.44 1.40 1.40 1.50 1.65 1.74 1.69 1.58 1.69 1.74 1.58 1.46 1.40 1.33 1.25 1.25 1.27 1.19 1.07 1.00 1.00 1.02 1.07 1.03 1.00 1.06 1.07 1.14 1.07 1.12 1.14 1.19 1.25 1.29 1.27 1.32 1.25 1.25 1.39 1.42 1.45 1.46 1.32 1.14 1.03 1.29 1.38 1.25 1.29 1.45 1.62 1.74
1.32 1.34 1.36 1.37 1.36 1.33 1.34 1.36 1.40 1.49 1.55 1.55 1.55 1.55 1.55 1.47 1.54 1.59 1.58 1.61 1.60 1.58 1.55 1.60 1.65 1.73 1.70 1.60 1.56 1.50 1.50 1.59 1.64 1.67 1.59 1.58 1.55 1.59 1.74 1.74 1.57 1.67 1.82 1.46 1.43 1.38 1.32 1.26 1.15 1.06 1.02 0.98 0.93 0.99 0.97 0.91 0.87 1.03 1.03 1.06 1.09 1.15 1.17 1.20 1.23 1.25 1.27 1.28 1.24 1.28 1.33 1.27 1.35 1.42 1.42 1.47 1.49 1.45 1.23 1.21 1.33 1.45 1.48 1.40 1.52
1.35 1.36 1.37 1.39 1.36 1.34 1.34 1.39 1.42 1.48 1.60 1.63 1.61 1.60 1.43 1.36 1.55 1.54 1.50 1.43 1.53 1.45 1.48 1.46 1.54 1.59 1.61 1.58 1.60 1.68 1.67 1.68 1.68 1.69 1.72 1.54 1.62 1.71 1.74 1.80 1.78 1.66 1.50 1.37 1.30 1.26 1.20 1.09 0.98 0.84 0.76 0.82 0.90 0.99 1.03 0.98 1.05 1.03 1.05 1.06 1.10 1.14 1.19 1.22 1.27 1.30 1.34 1.30 1.27 1.23 1.31 1.30 1.26 1.26 1.27 1.30 1.35 1.38 1.38 1.34 1.32 1.31 1.56 1.44 1.49
1.34 1.37 1.37 1.35 1.36 1.37 1.40 1.36 1.44 1.48 1.59 1.65 1.51 1.40 1.28 1.28 1.37 1.43 1.31 1.40 1.47 1.41 1.45 1.58 1.47 1.44 1.59 1.62 1.59 1.53 1.51 1.60 1.73 1.75 1.69 1.67 1.62 1.70 1.56 1.74 1.80 1.70 1.51 1.32 1.23 1.08 1.02 0.93 0.81 0.82 0.82 0.83 0.88 1.05 1.04 1.02 0.96 0.91 1.07 1.03 1.04 1.11 1.16 1.22 1.26 1.28 1.30 1.32 1.29 1.21 1.19 1.20 1.23 1.20 1.24 1.23 1.23 1.23 1.27 1.29 1.28 1.32 1.45 1.67 1.54
1.27 1.35 1.35 1.37 1.38 1.41 1.42 1.42 1.44 1.44 1.49 1.48 1.50 1.41 1.40 1.38 1.35 1.45 1.40 1.45 1.49 1.36 1.41 1.42 1.46 1.61 1.72 1.60 1.62 1.62 1.70 1.72 1.79 1.75 1.63 1.72 1.67 1.53 1.63 1.69 1.68 1.56 1.35 1.19 1.13 1.10 0.98 0.87 0.90 0.88 1.02 0.88 0.78 0.95 0.96 0.90 0.87 1.01 0.93 0.85 0.89 0.99 1.17 1.17 1.14 1.18 1.25 1.28 1.22 1.16 1.13 1.05 1.03 1.06 1.10 1.15 1.17 1.17 1.22 1.25 1.25 1.25 1.26 1.26 1.44
1.22 1.27 1.36 1.39 1.38 1.40 1.43 1.41 1.41 1.42 1.46 1.47 1.52 1.45 1.49 1.48 1.42 1.48 1.47 1.49 1.51 1.53 1.59 1.65 1.64 1.53 1.57 1.67 1.80 1.77 1.75 1.75 1.65 1.62 1.70 1.67 1.49 1.45 1.46 1.58 1.66 1.45 1.13 1.08 1.09 1.03 0.98 0.87 0.89 0.87 0.87 1.01 0.95 0.95 0.95 1.01 0.83 0.93 0.92 0.64 0.76 0.74 1.10 1.09 1.12 1.21 1.25 1.22 1.20 1.11 1.08 1.01 0.99 1.02 1.06 1.09 1.13 1.15 1.15 1.22 1.27 1.27 1.25 1.25 1.25
1.19 1.22 1.29 1.34 1.41 1.40 1.44 1.36 1.35 1.39 1.38 1.47 1.46 1.55 1.64 1.60 1.46 1.60 1.63 1.62 1.54 1.55 1.69 1.74 1.58 1.70 1.73 1.74 1.82 1.46 1.39 1.45 1.53 1.64 1.57 1.45 1.42 1.47 1.53 1.40 1.27 1.17 1.03 0.99 0.97 0.93 0.95 0.93 0.96 0.95 0.99 0.89 0.99 1.04 1.16 1.11 0.92 0.84 0.69 0.87 0.80 0.61 0.55 1.01 1.07 1.18 1.29 1.29 1.21 1.13 1.05 0.99 0.98 0.99 0.99 1.02 1.06 1.12 1.13 1.17 1.16 1.13 1.09 1.07 1.10
1.16 1.20 1.26 1.31 1.38 1.40 1.44 1.45 1.45 1.43 1.41 1.56 1.44 1.46 1.71 1.55 1.48 1.64 1.58 1.69 1.64 1.59 1.56 1.51 1.45 1.60 1.70 1.71 1.65 1.48 1.47 1.48 1.64 1.58 1.44 1.45 1.54 1.52 1.39 1.20 1.04 1.04 1.06 0.98 0.94 0.92 0.89 1.01 1.08 1.07 1.05 0.98 0.89 0.98 1.12 1.10 1.05 1.06 0.83 0.61 0.90 0.86 0.87 0.97 0.90 1.06 1.25 1.27 1.15 1.11 1.04 0.97 0.94 0.94 0.96 0.95 1.02 1.05 1.09 1.08 1.10 1.10 1.10 1.11 1.12
1.15 1.21 1.28 1.38 1.39 1.45 1.52 1.48 1.46 1.44 1.44 1.48 1.45 1.51 1.49 1.39 1.42 1.40 1.33 1.27 1.25 1.27 1.23 1.18 1.19 1.29 1.29 1.24 1.65 1.67 1.49 1.46 1.46 1.45 1.50 1.37 1.46 1.37 1.17 0.99 1.07 1.01 0.99 0.98 0.94 0.83 0.95 1.07 1.01 0.98 0.99 1.04 0.93 0.93 0.89 1.06 1.00 1.00 0.91 0.80 0.73 0.71 0.91 1.03 0.97 0.97 1.06 1.08 1.10 1.06 1.02 0.99 1.02 0.96 0.93 0.93 0.90 0.92 0.98 0.99 1.03 1.02 1.03 1.04 1.05
1.16 1.25 1.30 1.34 1.38 1.46 1.46 1.49 1.47 1.37 1.33 1.39 1.42 1.48 1.42 1.50 1.46 1.17 1.11 1.09 1.04 1.10 1.14 1.16 1.16 1.40 1.47 1.44 1.50 1.52 1.52 1.43 1.43 1.43 1.47 1.46 1.35 1.17 1.15 1.13 1.05 1.10 1.09 0.96 0.84 0.87 1.07 1.10 1.00 0.97 1.04 1.09 0.96 0.83 0.80 0.80 0.98 0.98 0.96 0.95 0.99 1.06 1.06 0.92 0.91 0.89 0.85 0.96 0.99 0.96 0.99 1.06 1.02 0.98 0.96 0.91 0.90 0.88 0.89 0.90 0.87 0.90 0.92 0.92 0.95
1.18 1.24 1.25 1.28 1.32 1.39 1.45 1.43 1.35 1.27 1.20 1.26 1.32 1.39 1.44 1.45 1.33 1.18 1.25 1.21 1.17 1.18 1.17 1.17 1.33 1.49 1.53 1.41 1.38 1.45 1.43 1.36 1.40 1.42 1.36 1.26 1.22 1.26 1.26 1.13 1.06 1.11 1.13 0.98 1.04 1.18 1.13 1.05 1.02 0.99 0.99 1.01 1.02 0.93 0.94 0.99 0.78 1.06 1.17 1.07 1.13 1.10 1.01 1.00 0.95 0.77 0.72 0.71 0.84 1.01 1.04 1.07 1.02 1.03 0.99 0.98 0.95 0.92 0.91 0.87 0.88 0.87 0.87 0.87 0.87
1.23 1.20 1.17 1.22 1.31 1.38 1.39 1.43 1.44 1.43 1.35 1.25 1.26 1.31 1.43 1.43 1.31 1.28 1.25 1.21 1.25 1.21 1.22 1.35 1.37 1.43 1.33 1.32 1.36 1.33 1.34 1.37 1.41 1.42 1.41 1.29 1.27 1.29 1.27 1.16 1.07 1.12 1.14 1.13 1.10 1.01 0.87 0.87 1.10 1.10 1.04 1.02 1.01 0.99 0.91 0.93 0.95 1.02 1.13 1.10 1.02 1.01 0.99 0.97 0.90 0.88 0.76 0.75 0.78 0.82 0.87 1.01 1.05 1.06 1.06 1.00 1.00 0.97 0.91 0.89 0.89 0.85 0.85 0.88 0.86
1.23 1.21 1.19 1.24 1.27 1.28 1.30 1.36 1.38 1.40 1.37 1.28 1.26 1.32 1.38 1.40 1.35 1.37 1.22 1.17 1.21 1.25 1.32 1.34 1.33 1.38 1.26 1.30 1.35 1.30 1.30 1.34 1.37 1.42 1.41 1.37 1.38 1.34 1.23 1.17 1.11 1.15 1.17 1.12 1.08 0.93 0.80 0.80 0.93 0.96 0.99 0.96 1.01 0.98 0.97 1.03 1.00 1.03 1.04 1.08 0.98 0.98 0.90 0.91 0.99 1.01 1.01 0.95 0.79 0.77 0.86 0.87 0.85 0.95 1.02 0.99 0.99 1.00 0.98 0.93 0.92 0.90 0.86 0.88 0.89
1.22 1.19 1.20 1.25 1.25 1.20 1.18 1.22 1.29 1.36 1.37 1.30 1.24 1.27 1.32 1.37 1.34 1.30 1.28 1.26 1.29 1.28 1.24 1.27 1.37 1.31 1.23 1.26 1.32 1.32 1.29 1.31 1.38 1.42 1.48 1.48 1.36 1.31 1.25 1.20 1.21 1.22 1.20 1.15 1.03 0.93 0.92 0.85 0.88 0.88 0.88 0.90 0.99 0.99 0.93 0.91 0.92 0.99 1.04 1.01 0.92 0.90 0.89 0.88 0.87 0.89 0.84 0.79 0.79 0.80 0.83 0.86 0.83 0.77 0.94 1.03 1.06 1.06 1.04 1.04 0.95 0.94 0.90 0.92 0.92
Wind_Speed
16 17 17 17 18 19 20 20 19 20 20 20 20 20 20 19 19 18 18 18 18 17 17 17 16 15 15 15 14 13 12 11 11 10 9 9 9 9 9 9 9 9 8 8 9 9 9 9 9 9 9 9 9 9 9 9 8 8 8 8 8 8 8 8 9 9 9 9 9 9 9 9 9 9 9 9 8 7 7 7 7 8 8 8 8
17 17 17 17 18 19 20 19 19 19 19 19 19 19 19 19 18 18 17 17 17 17 17 17 16 15 15 14 13 12 11 10 9 9 8 8 8 9 9 8 8 8 8 8 8 9 9 9 9 9 9 9 9 8 8 8 8 7 7 7 7 7 7 7 7 7 8 8 8 8 8 9 9 9 9 9 8 8 7 7 8 8 9 9 9
17 17 17 18 18 19 19 19 19 18 17 17 18 18 18 17 17 16 16 17 16 16 17 16 16 15 14 13 12 11 10 9 8 8 8 8 8 8 8 8 8 8 8 8 8 8 8 8 9 9 9 9 9 8 8 8 7 7 6 6 6 6 6 6 6 6 7 7 7 7 7 8 8 9 9 9 8 8 8 8 8 9 9 10 10
18 18 18 18 18 18 18 18 18 17 16 16 17 17 17 16 16 16 16 16 16 16 15 15 15 14 13 12 11 10 9 8 8 7 7 7 7 7 7 7 7 7 7 7 8 8 8 8 8 8 9 9 8 8 8 7 7 6 6 6 5 5 5 5 5 5 6 6 6 6 6 6 7 8 9 9 8 8 8 8 8 9 9 9 10
18 18 18 18 18 18 18 17 17 17 16 16 16 16 16 16 15 15 15 15 15 15 15 14 14 13 12 11 11 10 9 8 7 7 7 7 7 7 7 7 7 7 7 7 7 7 8 8 8 8 8 8 8 8 8 7 7 6 6 6 5 4 4 4 4 5 5 5 5 5 5 5 6 7 7 8 8 8 8 8 8 9 9 9 9
18 18 17 17 17 17 17 16 16 16 16 16 16 16 15 15 15 15 14 15 15 15 14 14 13 12 12 11 10 9 8 7 7 7 7 7 7 7 6 6 6 6 6 7 7 7 7 8 7 8 7 7 7 7 7 7 7 6 6 6 5 4 4 3 3 4 4 4 4 5 5 5 6 6 6 7 7 8 8 8 8 9 9 9 9
18 17 17 16 16 16 16 16 16 16 16 16 15 15 15 15 15 14 14 14 14 14 14 13 13 12 11 10 9 9 8 7 7 7 6 6 6 6 6 6 6 6 6 7 7 7 7 7 7 7 7 7 7 7 7 6 6 6 5 5 5 4 4 3 3 3 3 3 4 4 4 5 5 6 6 6 7 7 8 9 8 8 9 9 9
17 16 16 16 15 16 16 15 15 15 15 15 15 14 14 14 14 14 14 14 14 14 13 13 12 11 11 10 9 8 8 7 7 6 6 6 6 6 6 6 5 6 6 7 7 7 6 6 6 6 6 6 6 6 7 6 5 6 5 5 5 4 4 3 3 3 3 3 3 4 4 4 5 5 6 6 6 7 7 8 8 8 8 9 9
16 15 15 15 15 15 15 15 15 15 14 14 14 13 13 13 14 14 14 14 13 13 13 12 11 11 10 9 9 8 7 7 6 6 6 6 6 5 5 5 5 6 6 6 6 6 6 6 6 6 6 6 6 6 6 6 5 6 5 5 5 4 3 3 3 3 3 3 3 4 4 4 5 5 5 5 5 6 6 7 7 8 8 9 9
16 15 15 15 15 15 15 14 14 14 14 14 14 13 13 13 13 13 13 13 13 12 12 11 11 10 9 9 8 7 7 6 6 6 6 5 5 6 6 6 5 5 5 5 5 5 5 5 6 5 6 6 5 6 6 5 5 5 5 5 5 5 3 3 3 3 3 3 3 4 4 4 4 5 5 5 5 5 5 5 6 7 8 8 8
16 15 15 15 15 14 14 14 14 13 13 13 13 13 13 13 13 13 13 12 12 12 11 11 10 10 9 8 8 7 7 6 6 6 6 5 5 6 6 5 4 4 4 5 5 5 5 5 5 5 5 5 5 5 5 5 4 5 5 5 5 5 4 3 3 3 3 3 4 3 3 3 4 4 4 4 4 5 5 5 6 6 7 8 8
16 15 15 15 15 14 14 14 14 13 13 13 13 13 13 13 13 12 12 12 12 12 11 10 10 9 9 8 8 7 7 6 6 6 5 5 5 6 6 4 3 3 4 4 4 5 5 5 5 5 5 5 5 5 5 4 4 4 4 4 4 5 4 3 3 3 3 4 4 3 3 3 3 4 4 4 4 4 5 5 5 6 6 7 8
16 15 14 15 14 14 14 13 13 13 13 13 13 13 13 13 12 12 12 12 12 11 11 10 9 9 8 8 8 7 7 6 6 5 5 5 5 5 4 3 3 3 3 4 4 5 5 5 5 5 4 4 5 5 4 4 4 4 4 3 4 4 4 3 2 3 3 4 4 4 3 2 3 3 3 3 4 4 5 5 5 5 6 7 7
16 15 14 14 14 14 13 13 13 13 13 13 13 13 13 12 12 12 12 11 11 11 10 10 9 9 8 8 8 7 6 6 5 5 4 4 4 5 4 3 3 4 4 4 4 5 5 5 5 4 4 4 5 5 5 4 4 4 4 4 4 4 4 3 2 3 3 3 4 3 3 2 2 3 3 3 3 4 5 5 5 5 5 6 7
15 15 14 14 14 13 13 13 13 13 13 13 13 13 13 12 12 11 11 11 11 10 10 9 9 9 8 8 7 7 6 5 5 4 4 4 4 4 4 4 4 4 4 4 5 5 5 5 5 5 4 4 4 5 5 5 4 5 5 4 4 4 4 3 2 3 3 3 3 2 2 1 1 2 2 3 3 3 4 5 5 5 5 6 6
15 15 14 13 13 13 13 13 13 13 13 13 13 13 12 12 11 11 11 11 10 10 9 9 9 9 8 8 7 6 6 5 5 4 4 4 4 4 5 5 6 5 5 5 5 6 6 5 5 5 5 4 4 4 4 5 5 5 5 4 4 3 4 3 2 3 3 3 2 1 0 1 2 2 2 3 3 3 4 5 5 5 5 6 6
14 14 13 13 13 13 13 13 13 13 13 13 13 12 12 11 11 11 10 10 10 9 9 9 9 8 8 7 7 6 6 5 5 4 4 4 4 4 5 5 6 6 6 6 6 7 7 6 5 4 4 4 4 4 4 5 5 5 5 5 4 4 3 3 3 2 3 3 3 2 1 2 2 2 2 2 3 3 3 4 5 6 6 6 6
14 13 13 13 12 13 13 13 13 13 13 12 12 12 11 11 10 10 10 10 9 9 9 8 8 8 8 7 7 6 5 5 4 4 4 4 4 4 5 5 6 6 7 7 7 7 6 5 5 3 3 4 4 4 4 5 5 5 6 5 5 4 4 3 3 2 2 3 3 3 2 3 3 3 2 2 3 3 3 3 4 5 6 6 6
13 12 12 12 12 12 13 13 13 13 12 12 12 11 10 10 10 10 9 9 9 9 8 8 8 8 7 7 6 5 5 4 4 4 4 4 4 4 4 5 5 6 6 7 7 7 6 6 5 4 4 4 4 4 5 6 6 6 6 5 5 4 4 4 4 3 3 3 3 3 3 4 4 4 3 3 3 3 3 3 4 5 5 6 6
12 12 12 12 12 13 13 13 13 13 12 11 11 10 10 10 9 9 9 9 8 8 8 8 8 7 6 6 5 5 4 4 3 3 3 4 4 4 4 4 5 5 6 6 6 7 6 6 5 5 4 4 5 5 6 6 6 7 7 6 5 4 4 5 5 4 4 4 4 3 3 4 4 5 5 4 4 4 4 4 4 4 5 6 6
12 12 12 13 13 13 13 13 13 12 12 11 10 10 9 9 9 9 8 8 8 8 8 7 7 6 6 5 4 4 3 3 3 3 3 3 4 4 4 4 5 5 6 6 6 6 6 6 5 5 5 5 5 6 6 6 6 7 7 7 6 5 5 5 5 5 4 4 4 4 3 3 4 6 6 5 5 5 5 5 4 4 5 5 6
13 13 13 13 13 13 13 13 12 12 11 10 10 9 9 9 9 9 8 8 8 7 7 7 6 5 5 4 3 3 3 2 2 2 3 3 3 4 4 4 5 5 5 5 5 5 6 6 6 5 5 5 6 6 7 7 7 7 7 7 7 6 6 6 6 5 5 4 4 4 4 4 4 6 7 7 6 6 6 6 6 5 5 6 6
14 13 13 13 13 13 13 12 12 12 11 10 10 10 9 9 9 8 8 8 7 7 6 6 5 5 4 3 3 2 2 2 2 2 3 3 3 4 4 4 5 5 5 5 4 5 5 5 6 5 5 6 6 7 7 7 8 8 7 7 7 7 7 7 6 6 5 5 5 5 5 5 5 6 7 8 8 8 8 7 7 7 6 6 6
14 14 13 13 13 13 12 12 12 12 11 10 10 9 9 9 8 8 8 7 7 7 6 5 5 4 3 3 2 2 2 2 2 2 2 3 3 4 4 4 5 5 5 4 4 4 5 5 5 5 5 6 6 7 7 8 8 8 8 8 8 8 8 7 7 7 6 6 6 5 6 6 6 6 7 8 9 9 9 9 9 8 8 7 7
14 14 13 13 13 12 12 12 11 11 11 10 10 9 9 9 8 8 7 7 6 6 5 5 4 3 3 2 2 1 1 1 2 2 2 3 3 4 4 4 5 5 5 5 4 4 4 4 5 5 5 6 7 7 8 9 9 9 9 9 9 8 8 8 8 8 7 7 6 6 7 7 7 7 8 8 9 10 10 11 10 10 9 9 8
14 13 13 13 12 12 12 11 11 11 10 10 10 9 9 8 8 7 7 6 6 5 4 4 3 3 2 1 1 0 0 0 1 1 2 2 3 3 4 4 5 5 5 5 5 4 5 5 5 5 6 6 7 8 9 9 10 10 9 9 9 9 9 9 9 8 8 8 7 7 8 8 8 8 9 9 10 11 11 11 12 12 11 10 10
14 13 13 12 12 12 11 11 10 10 10 10 9 9 8 7 7 7 6 5 5 4 4 3 2 2 2 1 1 1 1 1 1 1 2 2 2 3 4 4 4 5 5 4 4 4 5 5 5 6 6 7 7 8 9 9 10 10 10 10 10 10 10 10 9 9 9 9 8 8 8 9 9 9 9 9 9 10 12 12 12 12 13 12 12
13 13 12 12 12 11 11 11 10 10 10 9 9 8 8 7 7 6 6 5 4 4 3 3 3 2 2 2 2 1 1 1 1 1 1 2 2 3 3 4 4 4 4 4 4 4 4 5 5 6 7 8 8 9 9 9 10 10 10 10 10 10 10 10 10 9 9 9 9 8 8 8 9 9 9 10 10 10 11 12 13 13 14 14 13
13 13 12 12 12 11 11 10 10 9 9 9 9 8 7 7 6 6 6 5 5 4 3 3 3 3 3 3 2 2 2 1 1 1 2 2 2 3 3 3 4 4 4 4 4 4 5 5 6 7 7 8 9 9 9 10 10 10 10 10 10 10 10 10 10 9 9 8 8 8 7 8 8 8 9 9 10 10 10 11 13 14 14 14 14
13 13 12 12 12 12 11 11 10 9 9 9 8 8 7 7 6 6 6 6 5 5 4 3 3 3 3 3 3 2 2 2 1 2 2 2 2 3 3 3 3 4 4 4 4 5 5 6 6 7 8 8 9 9 9 10 10 10 10 11 11 11 11 11 10 10 9 8 7 7 7 7 8 8 8 9 10 10 11 11 12 14 15 15 15
14 13 13 12 12 12 12 11 10 10 9 9 8 8 7 7 7 6 6 6 6 5 5 4 3 3 3 3 3 3 3 2 2 2 2 2 2 3 3 3 4 4 4 5 5 5 6 6 7 8 9 9 9 9 9 10 10 10 10 11 11 11 11 11 11 10 9 8 8 7 7 7 7 8 8 9 9 10 11 11 12 13 14 15 15
14 14 13 12 12 12 11 11 11 10 9 8 8 7 7 7 7 7 6 6 6 5 5 5 4 3 3 3 4 4 3 3 3 3 3 3 3 3 4 3 4 4 5 5 5 6 7 7 8 9 9 10 9 9 9 9 9 10 10 11 11 11 11 11 11 10 9 9 8 8 7 7 7 7 8 9 9 10 10 10 11 12 13 14 15
14 13 13 13 12 12 11 11 11 10 9 9 8 8 7 7 7 7 7 6 6 6 5 5 5 4 4 3 4 4 4 4 4 4 4 4 4 4 4 4 4 4 5 6 6 6 7 8 8 9 9 9 9 9 9 9 9 10 10 10 11 11 11 11 10 10 9 9 8 8 8 7 7 7 8 8 9 10 9 9 10 11 12 13 14
14 13 13 13 13 12 11 11 11 11 10 10 9 8 8 8 7 7 7 7 6 6 6 5 5 5 4 4 4 4 5 5 5 5 4 5 5 5 5 4 4 4 5 6 6 7 8 8 8 9 9 9 9 9 9 9 9 10 10 10 11 11 11 10 10 9 9 8 8 8 8 8 8 7 7 7 8 9 9 8 10 10 11 12 13
14 13 13 13 13 13 12 11 11 11 11 11 10 9 8 8 8 8 8 7 7 6 6 6 6 5 5 5 5 5 5 5 5 5 5 5 5 5 5 5 5 5 6 6 7 8 8 9 9 9 9 9 9 9 9 9 9 10 10 10 10 10 10 10 9 9 8 8 8 7 7 7 8 8 8 7 8 8 8 8 9 10 11 12 12
14 13 13 13 13 13 12 12 11 11 11 11 11 10 9 9 8 8 8 8 7 7 7 6 6 6 6 6 6 6 6 5 5 5 5 5 6 6 6 6 6 6 7 7 8 9 9 9 9 9 9 9 9 9 9 10 10 10 10 10 10 10 10 9 9 9 8 8 8 7 7 7 7 7 8 8 8 8 8 8 9 9 10 11 12
15 14 13 13 13 13 13 12 11 11 11 11 11 10 9 9 9 9 9 8 8 7 7 7 7 7 6 6 6 6 6 6 6 6 6 6 6 7 7 6 7 7 8 8 9 9 9 9 9 9 9 9 9 10 10 10 10 10 10 10 9 9 9 9 9 9 9 8 8 8 7 7 7 7 7 7 8 9 9 9 9 9 10 10 11
15 14 14 13 13 13 13 12 12 11 11 11 11 10 10 9 9 9 9 9 9 9 8 8 7 7 7 7 7 7 7 7 7 6 6 7 7 7 7 7 8 8 8 8 9 9 10 10 10 10 10 10 10 10 10 10 10 10 10 10 9 8 8 8 8 8 8 8 8 8 8 8 7 7 7 7 8 9 9 9 10 10 10 10 11
15 14 14 13 13 13 13 12 12 12 11 11 11 10 10 10 10 10 9 9 9 9 9 8 8 8 8 8 8 8 8 8 8 7 7 7 7 8 8 8 8 8 8 9 9 10 10 10 11 11 11 11 11 10 10 10 10 10 10 10 10 9 8 8 8 8 8 8 8 8 8 8 8 8 7 7 8 8 8 9 10 10 10 11 11
15 14 14 14 14 13 13 13 13 12 12 11 11 10 10 10 10 10 10 10 9 9 9 9 8 8 9 9 8 8 9 9 9 9 8 9 9 9 9 9 8 8 9 9 10 10 10 11 11 12 11 11 11 11 10 10 10 10 10 10 9 9 8 8 8 8 7 7 8 8 8 8 8 8 8 8 8 8 8 9 9 9 9 10 11
15 15 15 14 14 14 14 13 13 13 12 12 11 11 11 10 10 10 10 10 9 9 9 9 9 9 9 9 10 10 10 10 10 10 10 10 10 10 10 9 9 9 10 10 10 11 11 11 11 11 10 10 10 10 10 10 10 10 10 10 10 9 9 8 8 8 8 7 8 7 7 7 8 8 8 9 9 9 9 9 9 9 9 9 10
16 16 15 15 15 15 14 14 14 13 13 13 12 11 11 10 10 10 10 10 9 9 9 9 9 9 9 9 10 10 10 10 10 10 10 10 10 10 10 9 9 10 10 11 11 11 11 11 10 10 10 10 10 10 10 10 10 10 10 11 11 9 9 8 8 8 8 8 8 8 7 7 8 8 9 9 9 9 9 10 10 9 10 10 10
16 16 16 16 15 15 15 14 15 14 14 13 13 12 12 11 10 10 9 9 9 9 9 9 9 9 9 9 10 10 10 10 10 10 9 9 9 9 9 9 10 11 11 11 11 10 10 10 10 10 10 10 9 9 10 10 10 10 10 10 10 9 9 8 8 8 8 9 9 8 7 8 8 9 9 9 9 9 9 10 10 10 10 11 11
17 17 17 16 16 15 15 15 15 14 14 14 13 13 12 12 11 10 10 9 9 9 9 10 10 10 9 10 10 10 10 10 10 10 10 9 9 9 9 10 10 11 11 11 11 10 10 10 10 10 10 10 9 9 9 9 9 9 9 9 9 9 8 7 8 8 8 8 8 8 8 8 9 10 10 10 9 9 9 9 10 10 11 11 11
18 18 17 17 16 16 16 15 15 15 15 14 14 14 13 12 12 11 10 10 11 10 10 10 10 10 10 10 10 10 10 10 10 10 10 10 9 9 9 10 10 10 11 10 10 10 10 10 9 9 9 10 9 9 9 8 8 8 8 9 8 8 7 8 8 8 8 8 8 8 9 9 9 10 10 10 10 9 9 10 10 10 11 11 12
19 18 18 17 17 16 16 16 15 15 15 15 15 14 13 13 12 11 11 11 11 11 10 10 9 9 9 9 9 9 9 10 10 10 10 9 9 9 9 9 10 10 10 10 10 10 10 9 9 9 9 9 9 9 9 9 8 8 8 8 8 8 8 8 9 8 8 8 9 9 9 10 10 10 10 10 10 10 10 10 11 11 11 12 12
19 19 18 18 18 17 17 16 16 16 16 16 15 14 13 13 13 12 12 12 12 11 10 9 9 9 9 9 9 9 9 9 9 9 9 9 9 8 9 9 9 9 9 9 9 9 9 9 9 9 9 9 9 9 9 9 9 9 8 8 8 8 9 8 8 9 9 9 9 9 9 10 11 11 11 11 10 11 11 11 12 12 12 13 13
20 19 19 19 19 18 18 17 17 17 17 16 16 15 14 13 13 13 13 12 12 10 9 9 9 9 9 8 8 8 8 8 8 8 8 8 8 8 9 9 9 9 9 9 9 9 9 9 9 9 9 9 9 9 9 9 10 9 9 8 8 8 9 8 8 9 10 10 9 9 10 11 12 12 12 12 11 11 12 12 13 13 13 14 14
20 19 19 19 19 19 19 18 17 17 17 17 16 15 14 14 13 13 13 12 11 10 10 9 10 9 9 8 8 8 8 8 8 8 8 8 9 9 9 10 9 9 9 9 9 9 9 9 9 9 9 9 9 10 10 10 10 10 9 9 9 9 9 9 9 9 10 10 10 10 11 12 12 12 12 13 13 12 12 13 14 14 14 14 15
21 20 20 20 19 20 19 19 18 17 16 16 16 16 15 14 14 13 13 12 11 10 10 10 9 9 9 8 8 8 8 8 9 9 9 9 10 10 10 10 9 9 9 9 9 9 9 9 9 9 9 9 9 10 10 10 10 10 10 10 10 10 10 10 10 10 10 10 10 11 11 12 12 13 13 14 14 14 14 14 14 14 15 15 15
21 21 21 20 20 20 20 19 18 17 17 17 16 16 16 15 14 14 13 13 12 11 11 10 10 9 9 9 9 8 8 9 9 9 10 10 10 10 10 10 10 10 9 9 9 9 9 9 9 9 9 9 9 10 10 10 11 11 11 11 11 11 11 11 11 11 11 11 11 11 12 12 13 14 14 14 15 15 15 16 16 15 15 15 16
Wind_Direction
129 125 124 124 121 121 122 124 124 123 122 123 124 124 125 126 127 126 126 126 127 128 130 131 130 130 130 130 128 125 121 115 110 103 97 90 85 82 79 77 76 77 78 80 81 81 78 74 71 70 68 67 66 66 66 67 69 77 83 79 80 82 79 77 74 72 67 62 62 68 74 75 76 76 77 82 88 92 98 104 110 114 116 122 128
131 127 127 126 123 123 123 125 124 123 122 120 122 122 123 125 125 125 125 125 127 128 131 132 131 131 132 132 130 127 122 116 111 104 98 90 85 81 79 77 77 77 77 79 80 79 76 73 70 68 65 64 65 65 65 67 69 74 80 79 78 78 76 76 73 69 65 62 62 70 76 75 76 77 78 80 86 92 96 100 107 111 112 117 122
131 129 129 128 125 124 124 126 125 125 122 119 121 121 122 123 123 123 125 126 127 128 130 132 131 131 132 132 132 130 125 118 112 105 98 91 85 82 79 78 78 78 77 79 77 75 74 72 70 66 63 61 62 63 64 66 68 69 73 75 76 75 74 73 69 61 58 59 60 70 77 76 77 78 79 79 85 94 97 99 106 110 112 116 119
131 131 130 128 126 124 123 125 126 125 121 119 121 120 121 121 122 123 125 126 128 129 129 131 131 131 131 132 133 131 126 120 112 105 98 92 86 83 81 79 79 78 78 77 76 73 72 71 69 67 65 63 60 59 60 63 65 65 65 65 68 71 73 73 67 60 54 54 57 66 73 76 79 79 80 78 85 96 99 102 107 112 114 118 122
132 132 131 127 126 125 122 125 125 124 121 120 122 120 119 119 120 123 124 126 127 129 130 131 131 131 131 132 132 130 126 120 112 105 98 92 87 85 83 80 78 77 77 76 74 71 68 67 66 65 66 64 60 58 57 58 59 59 60 57 58 59 65 69 67 65 56 53 55 60 68 76 80 81 82 78 85 97 101 105 110 115 118 121 125
134 133 131 128 125 126 126 125 124 125 124 123 124 121 119 119 119 122 124 126 128 130 131 131 131 130 131 130 129 127 124 118 111 104 98 93 89 86 83 80 77 77 76 73 71 67 64 63 63 63 62 60 57 59 57 56 53 49 52 51 52 53 52 56 63 65 58 57 54 56 67 76 81 84 84 79 84 96 101 107 111 117 122 124 126
136 133 131 130 126 126 129 128 124 126 126 125 125 122 121 121 120 122 124 126 129 130 131 132 131 130 130 128 126 125 121 116 109 103 98 94 89 86 83 80 77 76 73 70 68 63 60 60 60 60 58 55 54 57 54 55 51 44 47 44 44 49 47 45 53 59 61 61 52 57 69 76 81 84 87 84 85 95 101 106 112 118 123 126 127
137 135 132 131 129 128 130 130 127 126 126 125 124 122 122 123 122 123 125 127 128 130 130 131 131 130 129 127 126 124 120 115 109 105 101 96 91 87 83 80 77 74 71 68 65 60 58 58 57 57 55 52 50 50 50 52 49 43 43 40 38 40 46 49 51 60 70 69 59 65 75 78 82 88 94 92 93 100 103 105 111 118 123 126 128
136 135 134 132 131 131 131 131 129 127 126 126 125 123 123 124 123 124 126 127 128 129 130 131 131 130 130 128 127 124 121 116 111 108 104 98 91 86 80 78 73 71 69 65 61 56 54 53 54 53 51 51 47 44 46 50 46 41 39 38 39 35 40 49 49 62 79 82 73 75 82 82 83 93 101 98 102 108 109 109 112 118 123 128 130
137 136 135 134 134 133 133 133 131 129 127 127 127 125 125 125 124 125 127 127 128 130 132 132 131 131 131 129 128 125 122 117 114 110 103 96 89 82 75 72 67 65 62 57 53 50 50 50 53 51 46 48 47 43 42 48 45 41 41 37 36 33 33 43 47 58 81 90 85 84 89 86 83 96 105 102 107 114 115 117 118 122 128 131 131
138 137 136 135 136 134 135 134 132 131 129 129 128 127 127 126 126 126 127 128 128 130 132 132 131 131 131 129 126 123 122 119 115 109 102 94 86 79 72 70 64 57 50 46 45 44 46 46 47 44 42 43 43 41 40 44 43 40 43 38 32 28 32 53 57 60 75 82 85 96 99 88 86 95 106 109 113 120 122 122 124 129 134 135 134
138 137 136 136 137 136 136 134 133 131 130 131 130 130 129 128 128 128 128 129 128 129 129 128 128 128 128 125 122 120 119 117 114 108 102 93 84 78 72 70 56 46 39 34 40 41 39 39 39 36 35 40 39 36 36 41 40 37 41 40 32 25 34 59 68 69 72 74 79 98 112 96 95 96 101 114 119 128 132 129 130 135 139 141 139
139 138 137 137 137 136 136 134 134 133 132 133 132 131 131 130 130 129 128 128 128 127 126 124 124 125 125 123 120 117 116 115 113 107 99 90 82 78 73 62 43 36 24 23 31 31 30 31 32 29 27 32 33 27 27 33 30 28 28 31 28 22 31 48 52 58 69 77 75 83 108 104 104 102 98 113 121 131 139 139 138 142 146 147 147
140 139 137 138 138 137 137 135 135 136 135 134 133 133 133 131 130 130 128 128 128 126 125 123 123 125 125 122 119 115 114 114 110 104 95 88 79 75 71 52 40 25 13 20 22 19 24 27 27 26 21 20 22 20 18 16 15 14 11 18 22 17 21 26 19 19 46 74 73 73 96 101 105 109 102 112 123 133 143 148 148 150 153 154 153
140 139 138 139 138 138 139 138 137 137 136 135 134 133 133 132 130 130 129 129 129 126 124 122 123 123 122 121 120 116 113 111 105 99 91 83 73 69 61 40 32 24 23 27 18 10 17 23 22 21 19 14 14 11 10 10 9 8 4 8 11 7 9 9 358 352 9 42 57 64 87 106 129 124 112 117 127 136 145 153 156 156 159 160 157
143 142 141 141 140 140 140 139 138 137 136 135 135 134 135 134 132 132 130 130 129 127 125 123 122 121 121 122 121 118 113 108 102 96 87 79 69 62 51 39 37 36 38 31 14 6 13 20 12 14 20 15 13 9 7 11 12 10 4 0 359 355 358 359 353 342 344 4 16 20 68 194 195 158 127 127 132 138 148 156 160 160 163 164 162
146 145 143 144 142 141 141 140 139 138 137 137 137 137 137 136 134 133 132 132 129 127 127 125 123 122 122 122 121 117 111 107 101 92 81 75 68 55 46 40 38 36 33 25 15 10 17 21 3 0 12 6 9 14 14 17 18 14 8 2 358 349 345 350 350 338 334 340 333 315 281 255 223 188 157 143 142 143 151 157 162 165 167 169 169
147 146 145 146 144 142 142 141 140 139 139 139 140 140 139 138 136 135 134 133 130 129 129 127 126 125 124 122 119 115 110 107 99 88 78 71 64 51 41 35 31 27 22 19 19 18 25 30 15 4 8 11 16 24 25 22 17 10 6 5 359 348 340 341 340 335 334 328 313 301 271 265 243 205 187 167 161 157 159 161 164 170 172 173 176
149 148 148 147 146 145 144 143 142 142 142 141 141 141 139 139 138 137 137 135 133 132 131 130 129 126 125 123 119 116 112 106 96 86 77 68 60 47 37 33 29 24 17 16 20 24 29 36 37 30 22 28 31 31 26 16 8 2 1 1 353 345 342 336 330 321 319 313 303 299 267 252 243 220 204 188 181 174 175 174 171 175 178 179 181
153 151 150 148 147 147 146 146 146 146 146 144 142 141 139 139 140 140 139 138 137 136 135 133 129 127 124 121 119 119 116 108 101 88 73 63 52 39 27 20 18 15 12 14 18 26 32 36 42 38 28 28 26 25 19 10 5 360 357 354 349 344 341 335 326 315 308 303 294 292 273 252 240 229 217 204 197 189 190 190 184 182 184 185 185
156 154 152 150 149 148 147 147 148 148 147 146 144 142 141 140 140 142 141 140 141 140 138 135 130 127 123 121 118 118 118 111 102 85 66 54 42 29 17 8 8 8 10 16 18 27 35 38 40 36 32 26 22 19 14 10 8 2 357 353 349 346 341 335 328 318 308 300 291 280 270 266 245 232 225 217 211 203 201 202 199 194 190 191 191
158 156 155 153 151 149 148 147 147 149 147 146 146 144 144 143 142 143 143 143 144 143 141 138 133 129 126 123 119 117 115 108 91 71 52 39 27 17 8 4 6 6 12 19 23 31 37 41 40 37 34 27 20 15 11 9 6 2 357 352 349 346 340 334 330 323 313 302 293 277 264 266 251 237 231 225 222 216 211 210 210 207 201 198 198
159 158 157 156 153 152 152 151 150 150 148 147 148 147 146 146 144 145 145 146 146 146 144 142 140 135 132 128 122 117 107 93 73 54 35 22 14 9 5 5 8 11 16 21 29 36 38 41 38 33 28 20 15 12 9 4 0 357 354 349 344 338 332 328 324 319 313 304 293 278 266 261 254 245 238 233 229 226 222 219 216 215 213 208 206
160 158 158 158 156 156 155 154 154 152 151 149 147 148 150 149 148 147 146 147 147 148 147 147 147 144 141 137 126 115 97 78 56 39 26 19 16 11 9 11 15 20 21 22 31 32 32 34 28 21 16 12 8 4 360 355 352 349 347 342 337 333 328 324 320 315 308 301 292 282 272 263 258 254 248 240 234 231 229 227 224 222 220 218 215
161 159 160 160 159 158 156 156 155 155 156 153 150 150 154 153 152 150 146 147 147 150 154 154 156 157 156 151 141 126 93 59 35 26 23 18 15 13 14 16 19 24 25 25 29 25 25 25 18 14 9 4 358 352 348 346 343 341 339 337 334 333 329 326 322 315 306 298 290 285 278 267 262 258 255 249 241 236 233 231 230 228 226 224 222
162 162 162 161 160 159 159 159 158 159 161 159 157 156 157 157 156 154 151 152 151 154 160 162 167 175 180 180 183 194 63 7 6 8 10 8 8 11 15 17 19 21 23 25 25 20 21 19 14 11 5 360 354 347 345 344 342 340 338 335 333 331 327 324 321 315 307 298 288 285 280 270 263 258 256 253 248 242 237 234 233 232 231 228 226
164 163 162 162 162 161 162 163 162 163 165 164 164 164 164 163 163 163 162 162 162 166 171 175 183 193 201 212 223 244 270 285 324 343 351 358 2 7 11 14 16 18 18 19 20 16 15 11 7 3 357 355 350 348 348 347 345 344 342 339 335 332 328 324 320 315 309 300 292 286 281 274 266 259 254 252 252 247 241 238 235 234 234 232 230
166 165 163 164 165 166 166 167 166 167 169 170 170 170 171 174 175 175 175 175 175 182 188 192 203 209 215 225 231 248 265 265 281 315 334 347 354 1 9 12 14 15 13 12 11 8 4 360 356 353 351 349 347 348 349 348 347 347 345 342 340 337 334 330 325 319 312 305 297 289 283 279 273 264 257 252 252 252 245 240 238 237 236 235 233
170 169 169 169 169 171 172 172 171 172 174 176 178 177 178 182 184 184 186 190 192 194 201 208 216 221 225 232 235 240 252 263 276 298 325 341 347 352 3 9 9 8 6 4 0 356 353 352 349 349 349 347 346 346 345 345 346 346 346 345 344 343 340 337 333 328 321 312 304 297 288 282 277 271 263 256 253 253 250 244 241 240 239 238 236
175 174 175 175 174 175 177 177 177 178 181 182 184 185 186 188 190 191 192 197 201 203 208 215 219 222 228 234 237 238 245 260 279 291 306 322 328 332 345 354 358 358 354 351 348 346 345 345 344 344 345 344 343 342 341 342 343 343 344 344 344 344 343 340 337 332 327 320 312 305 297 286 279 276 271 263 257 254 253 249 246 244 243 241 240
181 180 180 181 180 181 182 184 185 185 187 189 190 192 194 196 197 198 197 200 205 208 211 219 222 222 230 237 241 245 251 259 272 281 285 300 311 316 323 334 343 347 345 341 341 341 340 338 338 339 338 338 338 338 339 341 341 341 342 342 343 344 343 340 337 333 330 324 316 310 305 295 283 278 276 271 265 260 255 252 250 247 245 244 242
184 185 184 185 185 187 190 192 193 193 194 196 197 200 202 204 204 204 205 207 210 212 213 221 227 227 232 242 246 249 256 260 265 270 277 291 299 304 309 314 320 327 333 332 332 335 336 334 334 334 333 333 334 335 337 339 338 339 340 341 341 342 342 341 339 335 332 328 321 314 308 302 291 282 280 276 273 268 259 253 253 252 249 247 244
185 187 188 190 191 192 195 197 200 200 199 202 204 206 209 210 210 210 213 214 216 220 219 224 231 233 235 245 251 252 258 262 265 267 273 284 289 295 301 305 309 316 326 327 326 329 331 331 330 331 332 331 332 333 335 335 335 336 337 337 338 340 341 340 341 340 337 333 328 321 312 305 297 289 284 279 277 274 266 258 258 258 255 251 247
187 190 193 194 195 196 199 201 203 204 204 207 208 210 213 214 215 215 217 219 223 226 227 233 238 237 239 244 250 255 261 266 270 267 269 280 286 291 294 300 307 313 320 320 323 327 327 327 326 327 328 328 329 331 332 331 331 332 333 334 335 337 337 338 342 343 341 338 333 327 318 309 300 294 288 283 281 279 273 264 262 261 259 255 250
191 193 196 197 199 200 203 204 206 207 207 209 211 213 216 217 216 216 217 220 225 228 229 237 242 241 242 243 248 255 261 268 273 268 268 275 282 288 290 295 300 307 315 313 316 321 321 322 322 323 324 325 326 326 327 328 328 330 331 332 333 334 334 335 338 340 342 341 338 333 325 316 306 298 292 288 286 283 279 272 265 263 263 260 255
195 196 198 200 203 204 206 208 208 209 210 212 214 216 218 220 219 218 219 221 225 230 232 236 244 247 245 246 248 253 257 264 273 274 272 275 280 285 286 287 292 302 310 309 311 315 316 316 317 318 319 321 321 321 322 324 326 328 330 331 332 332 332 332 335 337 339 339 338 337 333 328 318 306 295 288 286 286 285 280 273 267 264 261 258
199 202 203 204 207 208 209 210 211 211 213 215 215 218 221 221 221 221 223 227 229 233 236 236 244 249 249 251 252 253 256 261 268 272 274 277 280 286 286 285 293 300 303 306 308 310 310 311 312 313 314 315 316 316 318 321 323 325 328 330 329 330 330 329 332 334 335 336 337 337 336 335 331 321 307 294 287 286 287 285 280 275 269 265 261
204 206 207 208 210 210 211 212 214 214 215 216 217 220 222 221 223 223 224 230 233 236 239 239 245 248 249 253 254 255 258 261 264 269 276 279 280 284 287 290 295 295 296 302 306 306 306 307 308 308 308 309 309 310 313 315 318 319 322 325 325 327 327 326 329 330 330 331 333 335 335 334 335 332 323 311 299 290 287 285 283 280 277 272 268
207 209 210 211 211 212 212 213 215 216 216 218 219 221 222 222 224 223 224 230 235 237 238 240 246 247 247 249 251 253 258 263 264 268 276 277 277 279 283 289 292 289 292 300 302 303 305 306 307 305 302 302 301 304 307 308 310 312 316 319 319 321 323 324 325 326 326 326 327 328 329 329 331 332 329 323 316 306 296 290 287 285 281 277 275
212 212 213 214 214 213 214 215 216 215 217 219 220 221 222 222 224 225 226 231 235 237 237 238 243 247 248 248 250 254 259 263 265 269 274 275 275 276 279 283 284 284 290 296 298 301 305 307 306 302 299 298 296 298 300 302 305 306 308 311 313 314 316 319 320 321 323 323 324 323 321 323 324 325 326 323 320 317 309 300 294 290 285 282 280
215 216 217 217 217 216 216 217 217 216 218 219 219 220 221 222 224 225 226 231 234 236 238 240 242 247 250 251 254 257 261 264 267 271 275 274 272 273 276 278 278 282 289 293 296 301 304 304 302 300 298 296 295 295 297 300 302 303 303 305 307 307 309 312 314 316 318 320 322 323 321 321 321 320 320 318 316 314 312 306 302 296 290 286 285
217 219 220 220 220 219 220 220 218 218 220 220 220 221 221 221 224 228 228 232 235 236 240 242 243 245 249 255 257 257 261 264 266 271 274 272 270 272 275 276 277 283 289 293 297 300 301 299 297 296 295 292 293 294 296 298 301 304 305 305 303 301 303 306 308 311 313 314 317 321 324 325 326 323 320 318 314 311 308 305 302 298 294 290 288
219 221 222 222 221 222 223 221 220 221 221 221 221 221 223 223 226 231 229 230 237 240 242 244 246 245 249 258 258 256 259 261 263 270 271 269 270 273 275 275 276 283 290 294 296 297 297 296 292 291 291 290 291 292 293 295 299 304 304 303 304 302 302 302 305 310 310 310 312 315 321 324 326 326 324 320 316 312 308 303 300 298 295 291 288
222 223 223 222 222 223 223 222 221 222 222 222 221 221 224 225 226 230 230 234 241 244 246 248 247 249 255 258 258 257 257 258 263 268 269 270 272 272 275 278 280 285 291 293 294 295 296 294 289 287 287 288 290 291 292 294 297 300 301 303 305 305 306 305 306 308 308 308 309 312 318 321 323 324 323 321 317 314 310 306 303 300 296 293 290
224 224 224 223 222 223 222 221 221 222 222 222 221 222 224 225 226 230 234 239 242 244 249 250 248 251 256 255 255 256 255 258 263 266 268 271 271 271 278 285 287 288 291 293 295 296 296 293 290 288 286 287 290 291 292 294 295 296 299 303 305 306 313 314 310 308 306 305 304 308 314 316 319 322 321 320 318 315 311 308 305 302 299 296 293
224 225 225 224 223 222 220 220 220 222 223 222 220 222 224 226 228 231 235 238 241 244 249 249 248 250 252 252 255 257 257 261 265 266 269 270 271 275 282 290 292 290 290 293 295 297 296 293 290 290 288 288 289 290 290 290 292 294 294 298 302 305 312 315 312 308 304 303 302 303 310 314 315 317 318 318 316 314 311 309 306 303 300 297 295
224 225 225 224 222 221 219 218 220 222 224 223 221 222 224 227 229 233 238 240 244 247 246 245 246 250 253 255 259 260 261 265 266 267 269 271 273 279 285 290 293 293 292 293 294 295 294 293 292 290 288 288 288 288 288 287 288 291 291 293 298 301 307 312 312 308 303 304 303 301 306 312 312 312 314 314 313 313 311 309 307 304 301 299 295
224 224 224 223 222 221 220 220 221 224 224 223 222 222 224 228 230 236 239 241 244 245 243 243 246 250 254 258 261 264 266 268 269 269 271 274 276 280 287 292 293 292 293 292 292 293 293 291 289 286 285 286 287 287 289 289 289 290 290 292 296 299 304 308 308 306 303 302 301 299 304 309 309 309 311 311 310 310 310 309 308 305 302 300 297
223 222 222 222 222 222 222 221 222 223 222 222 223 223 225 228 230 235 236 237 239 240 242 246 247 248 251 256 261 265 269 271 271 272 274 276 278 283 290 293 291 289 291 290 288 290 289 285 284 282 281 282 284 286 287 288 290 290 290 290 294 297 299 302 304 302 300 299 300 301 304 305 305 307 308 309 309 308 307 308 307 304 301 299 297
221 220 221 221 222 222 222 222 221 222 221 221 223 224 225 228 230 232 232 233 236 239 243 245 244 246 249 254 259 264 268 270 271 272 273 275 278 284 288 289 288 286 287 287 286 288 286 281 280 278 278 278 280 282 285 287 290 290 290 289 291 294 295 297 299 298 297 297 298 299 302 304 305 306 306 306 308 307 305 306 304 302 300 298 295
220 219 220 220 220 221 222 222 222 221 221 222 224 225 226 228 230 232 232 234 237 239 241 241 241 244 248 252 257 262 266 268 270 272 273 275 278 282 283 284 284 283 284 285 285 286 284 281 278 277 277 277 278 280 283 287 289 289 290 289 289 291 292 293 294 295 295 295 297 298 302 306 307 306 305 304 305 305 304 303 301 299 299 297 295